パンスターズ彗星

C/2021 S3 ( PanSTARRS )

English version
Home page
Updated on August 11, 2025

---------------------------------------------------------------------

・ プロフィール

発見日 2021年9月24日
発見光度 20.1等
発見者 Pan-STARRS 2 telescope (Haleakala)

・ 写真集

・ 軌道要素

Epoch 2024 Oct. 17.0 TT = JDT 2460600.5
T 2024 Feb. 14.69823 TT                                 Rudenko
q   1.3201277            (2000.0)            P               Q
z  -0.0001293      Peri.    6.84758     -0.77086173     +0.39876574
 +/-0.0000005      Node   215.61904     -0.61739450     -0.65970201
e   1.0001707      Incl.   58.53311     -0.15683185     +0.63700796
From 4293 observations 2020 Dec. 6-2024 Nov. 14, mean residual 1".4.

・ 星図

・ 光度変化

        m1 = -33   + 5 logΔ + 50   log r          [    ,-870]  (              〜2021年 9月27日)
        m1 =   5.0 + 5 logΔ + 10.0 log r          [-870,-343]  (2021年 9月27日〜2023年 3月 8日)
        m1 =   8.3 + 5 logΔ +  5.0 log r(t + 15)  [-343,   0]  (2023年 3月 8日〜2024年 2月14日)
        m1 =   8.0 + 5 logΔ +  7.0 log r          [   0,    ]  (2024年 2月14日〜              )

---------------------------------------------------------------------

軌道要素はM.P.E.C. 2024-V192に掲載されたものです。
星図はステラナビゲータ Ver.10 (アストロアーツ) で作成したものです。
光度グラフはComet for Windowsで作成したものです。

---------------------------------------------------------------------

Copyright(C) Seiichi Yoshida (comet@aerith.net). All rights reserved.